Regional Weather Roundup
Issued by NWS

Home | Current Version | Previous Version | Text Only | Print | Product List | Glossary On
Versions: 1 2 3 4 5 6 7 8 9 10 11 12 13 14 15 16 17 18 19 20 21 22 23 24 25 26 27 28 29 30 31 32 33 34 35 36 37 38 39 40 41 42 43 44 45 46 47 48 49 50
857
ASUS44 KJAN 010910
RWRMS

MISSISSIPPI HOURLY WEATHER ROUNDUP
NATIONAL WEATHER SERVICE JACKSON MS
400 AM CDT SAT NOV 01 2014

NOTE: "FAIR: INDICATES FEW OR NO CLOUDS BELOW 12,000 FEET WITH NO
SIGNIFICANT WEATHER AND/OR OBSTRUCTIONS TO VISIBILITY.

MSZ001>002-007>008-010>013-018>021-025>028-034>036-011000-
NORTHWEST MISSISSIPPI

CITY           SKY/WX    TMP DP  RH WIND       PRES   REMARKS
CLEVELAND      FAIR      37  29  71 N7        30.34R WCI  32
GREENWOOD      CLEAR     33  26  75 N6        30.32S WCI  28
GREENVILLE     CLEAR     36  27  69 N8        30.34S WCI  30
GRENADA        FAIR      34  27  75 CALM      30.33S
OXFORD         FAIR      36  23  60 NW8       30.33R WCI  29
TUNICA         SUNNY     36  27  69 N14       30.36S WCI  27
$$

MSZ003>006-009-014>017-022>024-029>033-037>039-011000-
NORTHEAST MISSISSIPPI

CITY           SKY/WX    TMP DP  RH WIND       PRES   REMARKS
COLUMBUS AFB   CLEAR     37  24  60 NW12      30.26R WCI  30
CORINTH        FAIR      36  25  64 NW10      30.26R WCI  28
GOLDN TRIANGLE CLEAR    N/A N/A N/A NW10      30.25R
STARKVILLE     FAIR      36  27  69 NW6       30.27S WCI  31
TUPELO         CLEAR     36  25  64 N7        30.27R WCI  30
$$

MSZ040-058-011000-
CENTRAL MISSISSIPPI

CITY           SKY/WX    TMP DP  RH WIND       PRES   REMARKS
JACKSON INTL   CLEAR     41  23  48 NW8       30.30R
JACKSON HAWKNS CLEAR     39  23  52 N5        30.30S
MERIDIAN KEY   CLEAR     39  23  52 N13       30.26S WCI  31
MERIDIAN NAS   CLEAR     36  25  64 NW8       30.26S WCI  30
RAYMOND        FAIR      36  32  87 CALM      30.31S
VICKSBURG      CLEAR     39  27  62 N9        30.34R WCI  33
$$

MSZ059>079-011000-
SOUTH MISSISSIPPI

CITY           SKY/WX    TMP DP  RH WIND       PRES   REMARKS
BROOKHAVEN     FAIR      36  27  69 CALM      30.30R
HATTIESBURG    CLEAR     42  26  53 NW5       30.27S
MCCOMB         CLEAR     42  18  37 N8        30.28R
NATCHEZ        CLEAR     39  25  56 N6        30.32R WCI  35
PINE BELT      CLEAR     39  23  52 N7        30.27S WCI  34
$$

MSZ080>082-011000-
COASTAL MISSISSIPPI

CITY           SKY/WX    TMP DP  RH WIND       PRES   REMARKS
BILOXI         CLEAR     46  23  40 N18G29    30.22R
PASCAGOULA     CLEAR     44  23  43 N17       30.21R
GULFPORT       CLEAR     46  24  42 N18G25    30.21R
$$



USA.gov is the U.S. government's official web portal to all federal, state and local government web resources and services.